Regional Weather Roundup
Issued by NWS

Home | Current Version | Previous Version | Graphics & Text | Print | Product List | Glossary On
Versions: 1 2 3 4 5 6 7 8 9 10 11 12 13 14 15 16 17 18 19 20 21 22 23 24 25 26 27 28 29 30 31 32 33 34 35 36 37 38 39 40 41 42 43 44 45 46 47 48 49 50
000
ASUS45 KTFX 191204
RWRMT
MONTANA HOURLY WEATHER ROUNDUP
NATIONAL WEATHER SERVICE GREAT FALLS MT
504 AM MST FRI DEC 19 2014

NOTE: "FAIR" INDICATES FEW OR NO CLOUDS BELOW 12000 FEET WITH NO
SIGNIFICANT WEATHER AND/OR OBSTRUCTIONS TO VISIBILITY.

* THESE STATIONS ARE NOT UNDER NWS QUALITY CONTROL. THEY DO NOT
   REPORT WEATHER SUCH AS PRECIPITATION OR FOG.

MTZ001>007-043-191300-
WEST OF THE DIVIDE
CITY           SKY/WX    TMP DP  RH WIND       PRES   REMARKS
KALISPELL      FOG       30  30 100 CALM      29.93F VSB 1
MISSOULA       CLOUDY    30  28  92 W3        29.98F
BUTTE          MOCLDY    16  14  92 CALM      29.97F
MULLAN PASS    LGT SNOW  30  28  92 VRB5      29.87F VSB M1/4 WCI  25
* ANACONDA     PTCLDY    32  21  64 S11        N/A   WCI  23
* ESSEX        N/A       29  28  96 NE1        N/A
* LINCOLN      N/A       30  27  89 SW3G9      N/A
* LOOKOUT PASS N/A       34  32  92 SW1        N/A
* POLSON       N/A       33  32  96 N/A        N/A
* RONAN APT    PTCLDY    32  30  92 N/A        N/A
* SEELEY LAKE  N/A       25  24  96 N1         N/A
* THOMP F APT  CLOUDY    25  24  96 SE3G9      N/A
* YAAK HILL    N/A       34  32  92 E1         N/A
$$

MTZ008-052>055-191300-
SOUTHWEST MONTANA
CITY           SKY/WX    TMP DP  RH WIND       PRES   REMARKS
BOZEMAN        CLOUDY    27  21  78 SE9       29.98F WCI  18
DILLON         CLOUDY    28  21  75 S9        29.99F WCI  19
* W YELLOWSTON MOCLDY    25  24  96 SW4G10     N/A
* THREE FORKS  MOCLDY    36  36 100 N/A        N/A
* BOULDER HILL N/A       27  18  69 SW11       N/A   WCI  17
* MONIDA PASS  N/A       24  24 100 SE16       N/A   WCI  11
* RAYNOLDS PAS N/A       26  16  66 SW10       N/A   WCI  16
* WHITEHALL    N/A       29  21  72 NE2G9      N/A
* WISE RIVER   N/A       23  20  88 NW2        N/A
$$

MTZ009>010-012-014-046-048-049-054-191300-
EAST SLOPES AND CENTRAL MONTANA
CITY           SKY/WX    TMP DP  RH WIND       PRES   REMARKS
CUT BANK       PTCLDY    28  21  75 S6        29.83F WCI  21
GREAT FALLS    PTCLDY    32  25  75 S12       29.87F WCI  23
HELENA         CLOUDY    25  21  85 CALM      29.96F
* DEARBORN     N/A       39  25  57 S9         N/A   WCI  33
* EAST GLACIER N/A       35  27  73 W38G50     N/A   WCI  20
* MONARCH      N/A       31  16  54 S10G20     N/A   WCI  22
* PENDROY      N/A       31  20  64 NE2        N/A
* SWEET GRASS  N/A       25  20  81 S12        N/A   WCI  14
$$

MTZ011-013-016-021-035-040-045-047-050-051-191300-
NORTH CENTRAL MONTANA
CITY           SKY/WX    TMP DP  RH WIND       PRES   REMARKS
HAVRE          CLEAR     25  21  85 W5        29.88F WCI  19
LEWISTOWN      MOCLDY    32  21  64 SW14      29.89F WCI  22
* N BAR RANCH  CLEAR     27  18  69 CALM      29.90F
* CHESTER      N/A       15  12  88 N3         N/A
* DENTON       N/A       29  21  72 SW8        N/A   WCI  21
* GEYSER       N/A       34  21  59 SW16       N/A   WCI  24
* JUDITH GAP   N/A       30  19  64 SW10       N/A   WCI  21
* LOMA         N/A       26  24  92 SW1        N/A
$$

MTZ017>020-022>027-061-062-191300-
NORTHEAST MONTANA
CITY           SKY/WX    TMP DP  RH WIND       PRES   REMARKS
GLASGOW        MOCLDY    19  16  88 CALM      29.91S
GLENDIVE       PTCLDY    27  21  78 S6        29.93S WCI  20
JORDAN         PTCLDY    23  19  85 W7        29.91S WCI  15
SIDNEY         CLOUDY    21  16  81 CALM      29.93S
WOLF POINT     PTCLDY    18  12  77 E3        29.93S
* BEAVER HILL  N/A       30  23  75 SW14G19    N/A   WCI  19
* CIRCLE       N/A       28  25  89 N/A        N/A
* LINDSAY DVD  N/A       33  26  75 W11        N/A   WCI  24
* NAVAJO       N/A       20  18  92 W1         N/A
* SACO         N/A       18  16  92 N/A        N/A
$$

MTZ028>042-056>058-191300-
SOUTHCENTRAL AND SOUTHEAST MONTANA
CITY           SKY/WX    TMP DP  RH WIND       PRES   REMARKS
BAKER          PTCLDY    27  21  78 W13       29.93S WCI  16
BILLINGS       CLOUDY    34  19  54 SW20      29.95S WCI  23
LIVINGSTON     MOCLDY    37  19  48 W26G40    29.93F WCI  25
MILES CITY     PTCLDY    21  19  92 S6        29.95R WCI  13
* LAUREL APT   PTCLDY    32  12  43 S10G18     N/A   WCI  24
* ROUNDUP APT  PTCLDY    30  19  64 S5         N/A   WCI  25
* ALZADA       N/A       26  19  75 SW2        N/A
* HYSHAM       N/A       33  17  52 W4         N/A
* LAME DEER    N/A       34  16  48 N/A        N/A
* REED POINT   N/A       21  19  92 SE2        N/A
* ROSCOE HILL  N/A       35   8  32 SW9G19     N/A   WCI  28
$$

REGIONAL REPORTS...DAKOTAS
CITY           SKY/WX    TMP DP  RH WIND       PRES   REMARKS
WILLISTON      FOG       21  19  92 CALM      29.92S VSB M1/4
DICKINSON      CLOUDY    32  25  75 W6        29.89S WCI  26
BEACH          FAIR      28  27  96 SW9       29.92S WCI  19
CROSBY         FOG       25  25 100 W5        29.92S VSB 1 3/4 WCI  19
WATFORD CITY   CLEAR     19  18  96 CALM      29.90R
BISMARCK       CLOUDY    21  21 100 SE5       29.96F WCI  14
GRAND FORKS    FOG       21  19  92 S9        30.07F WCI  11
FARGO          FOG       25  21  85 S15       30.10F WCI  13
BUFFALO SD     PTCLDY    28  19  69 W8        29.87S WCI  20
RAPID CITY     PTCLDY    28  18  66 NW8       29.97S WCI  20
$$

REGIONAL REPORTS...WYOMING/IDAHO/WASHINGTON
CITY           SKY/WX    TMP DP  RH WIND       PRES   REMARKS
GILLETTE       CLEAR     16  10  77 CALM      29.97S
SHERIDAN       PTCLDY    23  12  63 S5        29.95F WCI  16
CODY           PTCLDY    27  18  69 SE9       29.97S WCI  18
YELLOWSTONE LA MOCLDY    23  19  85 VRB5      30.06F WCI  16
SALMON         CLOUDY    27  23  85 CALM      30.06S
MULLAN PASS    LGT SNOW  30  28  92 VRB5      29.87S VSB M1/4 WCI  25
SAND POINT     N/A       34  34 100 CALM      29.91F
SPOKANE        LGT RAIN  39  37  93 SE5       29.86F WCI  35

$$




USA.gov is the U.S. government's official web portal to all federal, state and local government web resources and services.